Regional Weather Roundup
Issued by NWS Wakefield, VA

Home | Current Version | Previous Version | Text Only | Print | Product List | Glossary Off
Versions: 1 2 3 4 5 6 7 8 9 10 11 12 13 14 15 16 17 18 19 20 21 22 23 24 25 26 27 28 29 30 31 32 33 34 35 36 37 38 39 40 41 42 43 44 45 46 47 48 49 50

000
ASUS41 KAKQ 281415
RWRAKQ

REGIONAL WEATHER ROUNDUP
NATIONAL WEATHER SERVICE WAKEFIELD VA
1000 AM EDT THU JUL 28 2016

Note: "fair" indicates few or no clouds below 12,000 feet with no
significant weather and/or obstructions to visibility. * = Denotes
station may not report precipitation (e.g., rain,snow,etc.),
thunder or fog.

VAZ042-051-052>054-056-281500-
NORTHERN VIRGINIA

CITY           SKY/WX    TMP DP  RH WIND       PRES   REMARKS
WASH NATIONAL  PTSUNNY   87  74  64 S5        29.89F HX  95
DULLES         PTSUNNY   85  70  60 CALM      29.91F
FORT BELVOIR   FAIR      84  75  73 SE5       29.89F
QUANTICO       CLOUDY    82  74  76 CALM      29.90
FREDERICKSBRG* FAIR      82  74  78 S3        29.90S
STAFFORD*      FAIR      81  73  76 CALM      29.94F
WARRENTON      FAIR      82  70  65 CALM      29.91S
CULPEPER*      FAIR      81  76  84 CALM      29.92S
MANASSAS*      SUNNY     82  72  69 CALM      29.90F
LEESBURG*      FAIR      86  73  66 CALM      29.92S
WINCHESTER     FAIR      81  72  74 CALM      29.93F
FRONT ROYAL*   PTSUNNY   77  72  83 SW3       29.92F
LURAY*         FAIR      79  79 100 SW3       29.95F
$$

VAZ048-049-060>072-079>083-281500-
CENTRAL AND SOUTH CENTRAL VIRGINIA

CITY           SKY/WX    TMP DP  RH WIND       PRES   REMARKS
RICHMOND       PTSUNNY   83  74  74 S6        29.90F
CHESTERFIELD*  FAIR      84  64  51 S3        29.93F
PETERSBURG*    FAIR      86  75  69 CALM      29.92F HX  95
HANOVER        FAIR      84  73  69 CALM      29.92F
TAPPAHANNOCK*  FAIR      87  72  60 S7        29.91F
QUINTON*       FAIR      83  76  77 SE3       29.90F
CHARLOTTSVILLE FAIR      80  74  81 CALM      29.93S
GORDONSVILLE*  FAIR      79  75  89 CALM      29.92S
ORANGE*          N/A     79  77  94 CALM      29.94S
LOUISA*        FAIR      82  77  83 CALM      29.92S
BUMPASS*       FAIR      79  75  88 CALM      29.92R
FARMVILLE*     FAIR      83  78  84 CALM      29.92S
CREWE*         NOT AVBL
FORT PICKETT*  FAIR      84  80  86 S3        29.92F HX  97
CHASE CITY*    FAIR      81  76  85 CALM      29.94S
CLARKSVILLE*   FAIR      82  75  78 S5        29.93F
SOUTH HILL*    FAIR      84  76  76 S5        29.99S
LAWRENCEVILLE* FAIR      84  77  78 S3        29.93S
EMPORIA*       FAIR      84  73  70 E3        29.93F
$$

VAZ088>098-281500-
SOUTHEAST VIRGINIA

CITY           SKY/WX    TMP DP  RH WIND       PRES   REMARKS
NORFOLK        FAIR      90  78  68 N3        29.91S HX 104
VIRGINIA BEACH PTSUNNY   93  78  61 CALM      29.90F HX 108
NORFOLK NAVAL  FAIR      89  78  70 N5        29.92F HX 103
WEST POINT*    FAIR      86  73  64 CALM      29.91F
SALUDA*        FAIR      85  78  79 CALM      29.90F HX  96
NEWPORT NEWS   FAIR      87  77  72 SW5       29.91F HX  99
LANGLEY AFB    MOSUNNY   87  78  74 SW5       29.91S HX 101
FORT EUSTIS    NOT AVBL
WILLIAMSBURG*  FAIR      86  77  74 CALM      29.92S HX  97
HR EXEC AP*    FAIR      84  79  84 CALM      29.94R HX  96
FRANKLIN*      FAIR      84  75  76 CALM      29.93S
US460-WAKEFLD  FAIR      84  74  71 CALM      29.92S
$$

VAZ020-022-025-037-045-281500-
WEST CENTRAL AND SOUTHWEST VIRGINIA

CITY           SKY/WX    TMP DP  RH WIND       PRES   REMARKS
STAUNTON*      FAIR      76  73  88 SW5       29.99S
WAYNESBORO*    FAIR      77  72  82 CALM      29.98F
HOT SPRINGS VA NOT AVBL
LYNCHBURG      FAIR      81  72  74 CALM      29.97F
DANVILLE       FAIR      81  74  79 CALM      29.96R
SOUTH BOSTON*  FAIR     N/A N/A N/A CALM      29.94S
MARTINSVILLE   CLOUDY    81  74  79 CALM      30.00S
ROANOKE        FAIR      82  71  69 W6        29.99F
BLACKSBURG     CLOUDY    77  73  85 W3        30.07F
DUBLIN*        FAIR      80  71  72 W3        30.06S
MARION*        CLOUDY    77  71  83 W12       30.09F
HILLSVILLE*    PTSUNNY   76  70  82 W8        30.07F
RICHLANDS*     PTSUNNY   73  71  94 W9        30.08S
WISE*          NOT AVBL
ABINGDON*      CLOUDY    76  73  90 W5        30.06S
$$

MDZ021>025-VAZ099-100-281500-
SOUTHERN MARYLAND AND THE DELMARVA PENINSULA

CITY           SKY/WX    TMP DP  RH WIND       PRES   REMARKS
PATUXENT RIVER PTSUNNY   87  75  67 E7        29.89F HX  96
BAY BRIDGE APT SUNNY     90  79  70 SE7       29.89F HX 105
LEONARDTOWN      N/A    N/A N/A N/A MISG        N/A
DOVER          SUNNY     87  78  74 SE7       29.90S HX  99
GEORGETOWN     SUNNY     89  74  60 SW6       29.92S HX  98
EASTON         MOSUNNY   90  81  74 S6        29.93F HX 108
CAMBRIDGE      MOSUNNY   86  77  74 SE5       29.89F HX  97
SALISBURY      SUNNY     87  78  74 SE6       29.91S HX 100
OCEAN CITY     CLOUDY    82  78  88 S3        29.92S
WALLOPS ISLAND FAIR      86  78  77 SE7       29.92S HX  98
ACCOMACK*      NOT AVBL
$$

NCZ012>017-030>032-281500-
NORTH CENTRAL AND EASTERN NORTH CAROLINA

CITY           SKY/WX    TMP DP  RH WIND       PRES   REMARKS
ROANOKE RAPIDS FAIR      82  75  78 CALM      29.94R
RALEIGH        MOSUNNY   86  74  67 SW5       29.95S
ELIZABETH CITY SUNNY     86  77  74 VRB3      29.92F HX  97
AHOSKIE*       SUNNY     83  76  80 CALM      29.93S
EDENTON*       SUNNY     86  76  71 SW3       29.94R HX  97
CURRITUCK*     SUNNY     86  78  75 SW7       29.93F HX  98
KILL DEVIL HLS SUNNY     89  77  68 CALM      29.92F HX 101
MANTEO           N/A     83  78  85 S6        29.94F
CAPE HATTERAS  SUNNY     85  80  85 SW8       29.94F HX  99
TARBORO*       FAIR      86  78  78 SW5       29.94F HX  99
GOLDSBORO      SUNNY     90  78  68 VRB7      29.93F HX 103
WASHINGTON     SUNNY     86  78  77 SW5       29.93F HX  98
GREENVILLE     SUNNY     88  79  74 SW5       29.95F HX 102
NEW BERN       SUNNY     88  77  69 W6        29.95F HX 100
WILMINGTON     SUNNY     90  75  61 W13       29.97S HX 100
$$

VAZ048-281500-
ELSEWHERE

CITY           SKY/WX    TMP DP  RH WIND       PRES   REMARKS
HARRISBURG PA  CLOUDY    81  71  71 CALM      29.91F
BALTIMORE      PTSUNNY   87  72  60 SE6       29.89F
ANNAPOLIS        N/A    N/A N/A N/A MISG      29.89F
ANDREWS AFB    FAIR      84  75  72 VRB3      29.89F
PHILADELPHIA   PTSUNNY   87  73  62 SE5       29.92F
GREENSBORO     MOSUNNY   83  73  72 W6        29.97S
ROCKY MOUNT    SUNNY     86  79  79 SW7       29.94S HX  99
$$

VAZ100-281500-
MARINE

STATION/POSITION TIME  TEMP    WIND        PRES    WAVE   SWELL
                       AIR SEA DIR/SP/G            HT/PER HT/PER
                 (UTC) (F)     (DEG/KT/KT) (MB)    (FT/S) (FT/S)
BRANDYWINE LGT   1318   78     170/  4/  5   N/A
CAPE MAY NJ      1300   84 73  230/  2/  2 1012.6R
LEWES DE         1300   82 74   50/  2/  3 1013.0R
OCEAN-CITY-INLET 1300   77 71  180/  2/  4 1013.5S
WACHAPREAGUE VA  1300   83 86  160/  3/  5 1013.1S
THOMAS POINT MD  1400   82 84  170/  6/  7 1013.7F
GOOSES REEF MD   1400   85 86  160/  4/  6 1013.5F   0
COVE POINT MD    1300   84     140/  2/  3 1013.2F
SOLOMONS ISLAND  1300   88 86  240/  2/  3   N/A
BISHOPS HEAD MD  1300   86 87  200/  2/  5 1013.1F
PINEY POINT MD   1300          340/  2/  3   N/A
POTOMAC MD       1400   86 86   CALM  /  2 1011.3F   0
CAMBRIDGE MD     1300   85 88  190/  4/  6 1012.0F
LEWISETTA VA     1300   83 87  280/  3/  4 1012.3F
RAPPAHANNOCK LGT 1300           CALM  /  1 1013.5F
STINGRAY PT      1400   86 86     CALM     1013.2F   0
YORK RVR RNG VA  1300   85      CALM  /  1 1012.5F
YORKTOWN VA      1300   83 83  360/  1/  2 1012.6S
JAMESTOWN VA     1400   85 90     CALM       N/A     0
DOMINION TERM VA 1300   82     210/  3/  4 1013.1S
KIPTOPEKE VA     1300      79  260/  2/  2   N/A
CHES BAY BRIDGE  1300   82 81  230/  2/  2 1013.0R
CAPE HENRY VA    1300   82     330/  3/  4   N/A
WILLOUBY STN VA  1300   85      CALM  /  1   N/A
CAPE HENRY BUOY  1312      76                N/A     1/ 8
1ST LANDING BUOY 1400   84 81  280/  2/  2 1012.6F   1
CAPE CHARLES BUO 1326      79                N/A     1/ 8
OFFSHORE WE BUOY 1321      83                N/A     1/ 7
64NM E OF VA BCH 1350   82 82  200/  6/  8 1013.2F   2/ 6   2/ 6
DUCK PIER NC     1300   83 76  220/  5/  7 1012.8F
44100 DUCK FRF   1305      79                N/A     1/ 8
44056 DUCK FRF   1311      78                N/A     1/ 8
OREGON INLET NC  1300   83 84  190/  5/  5 1013.9F
HATTERAS NC      1300   84 83  210/  7/  9 1013.8F
DIAMOND SHLS NC  1350   85 84  230/ 12/ 14 1014.2F   2/ 5   2/ 6
CAPE LOOKOUT NC  1400   85     250/ 10/ 12 1014.1F
$$



USA.gov is the U.S. government's official web portal to all federal, state and local government web resources and services.